Miscellaneous Local Product
Issued by NWS North Platte, NE

Home | Current Version | Previous Version | Text Only | Print | Product List | Glossary On
Versions: 1 2 3 4 5 6 7 8 9 10 11 12 13 14 15 16 17 18 19 20 21 22 23 24 25 26 27 28 29 30 31 32 33 34 35 36 37 38 39 40 41 42 43 44 45 46 47 48 49 50
000
AXUS43 KLBF 042110
MISLBF


WESTERN AND NORTH CENTRAL NEBRASKA HOURLY WEATHER ROUNDUP
NATIONAL WEATHER SERVICE NORTH PLATTE NE
400 PM CDT MON MAY 04 2015

***STATIONS NOT REPORTING VARIABLES SUCH AS SKY/WEATHER OR
PRESSURE ARE PROVIDED BY THE NEBRASKA DEPARTMENT OF
ROADS...RAWS...AND APRS NETWORKS...AND ARE NOT UNDER
NATIONAL WEATHER SERVICE QUALITY CONTROL***

...OBSERVATIONS IN AND NEAR THE EASTERN PANHANDLE OF NEBRASKA...

CITY           SKY/WX    TMP DP  RH WIND       PRES   REMARKS
PINE RIDGE     CLOUDY    54  33  45 E12       30.16F
CHADRON        LGT RAIN  52  40  63 E12       30.15F
ALLIANCE       CLOUDY    60  35  39 E14G23    30.12F
SIDNEY         PTSUNNY   60  40  47 SE12      30.12F
WHITECLAY        N/A     54  34  47 E3          N/A
CRESCENT LAKE    N/A     61  30  31 SE10G18     N/A
BIG SPRINGS      N/A     52  46  79 E12         N/A
$$

...OBSERVATIONS IN NORTH CENTRAL NEBRASKA...

CITY           SKY/WX    TMP DP  RH WIND       PRES   REMARKS
VALENTINE      CLOUDY    65  23  20 NE16      30.14F
THEDFORD       CLOUDY    64  30  28 E12       30.15S
AINSWORTH      CLOUDY    69  26  19 E13G18    30.13S
O`NEILL        CLOUDY    66  33  28 NE10      30.14S
ORD            LGT RAIN  59  42  53 E10       30.12R
BROKEN BOW     LGT RAIN  53  48  83 CALM      30.14R
BROWNLEE         N/A     70  28  21 NE15        N/A
VALENTINE NWR    N/A     62  26  25 NE10G17     N/A
SPRINGVIEW       N/A     69  29  22 NE13G24     N/A
HALSEY           N/A     63  27  25 E9G16       N/A
BREWSTER         N/A     64  32  31 E14         N/A
ROSE             N/A     64  33  31 NE10        N/A
NEWPORT          N/A     69  33  26 E15         N/A
SARGENT          N/A     57  48  73 CALM        N/A
COMSTOCK         N/A     57  53  85 S3          N/A
EWING            N/A     66  37  35 E15         N/A
$$

...OBSERVATIONS IN SOUTHWEST NEBRASKA AND FAR NORTHEAST COLORADO...

CITY           SKY/WX    TMP DP  RH WIND       PRES   REMARKS
WRAY           CLOUDY    56  47  72 NE12      30.12S
IMPERIAL       CLOUDY    51  46  83 NE15      30.13S
OGALLALA       DRIZZLE   50  45  83 SE10      30.15S
NORTH PLATTE   LGT RAIN  50  44  80 E14       30.14S
MCCOOK         CLOUDY    58  43  57 NE12      30.10F
LEXINGTON      CLOUDY    51  49  90 NE14      30.12F
PAXTON           N/A     50  45  83 SE8         N/A
SUTHERLAND       N/A     44  41  89 E3          N/A
GOTHENBURG       N/A     50  45  83 E8          N/A
CALLAWAY         N/A     49  46  89 E9          N/A
$$

...NORTH PLATTE AREA...

CITY           SKY/WX    TMP DP  RH WIND       PRES   REMARKS
AIRPORT        LGT RAIN  50  44  80 E14       30.14S
DOWNTOWN         N/A     50  43  77 E3          N/A
$$

...SOME WEATHER OBSERVATIONS FROM AROUND THE REGION...

CITY           SKY/WX    TMP DP  RH WIND       PRES   REMARKS
DENVER         PTSUNNY   58  49  72 NE13      30.07F
LARAMIE        CLOUDY    49  40  71 S23       30.11R
CHEYENNE       CLOUDY    55  44  66 S9G18     30.10F
SCOTTSBLUFF    CLOUDY    60  38  43 SE12      30.11F
RAPID CITY     LGT RAIN  53  38  56 SE7       30.17F
PIERRE         CLOUDY    67  22  18 E10       30.17F
WINNER         CLOUDY    69  21  16 NE14G22   30.14F
SIOUX FALLS    CLOUDY    71  29  21 SE12      30.13F
OMAHA          CLOUDY    65  60  84 N8        30.08F
GRAND ISLAND   CLOUDY    54  51  90 NE9       30.11S
KANSAS CITY    MOSUNNY   82  59  45 SE13      29.99F
WICHITA        PTSUNNY   82  61  48 S21G28    29.98F
HAYS           PTSUNNY   75  55  50 N12       29.99F
LIBERAL        MOSUNNY   81  54  39 S12G21    29.98F
GOODLAND       PTSUNNY   64  47  53 NE13      30.07F
$$



USA.gov is the U.S. government's official web portal to all federal, state and local government web resources and services.